Date,TemperatureHighF,TemperatureAvgF,TemperatureLowF,DewpointHighF,DewpointAvgF,DewpointLowF,HumidityHigh,HumidityAvg,HumidityLow,PressureMaxIn,PressureMinIn,WindSpeedMaxMPH,WindSpeedAvgMPH,GustSpeedMaxMPH,PrecipitationSumIn
2013-10-1,92,78,64,66,49,22,64,39,10,30.09,29.98,4,1,11,0.00
2013-10-2,93,81,74,64,54,23,60,41,10,30.13,29.99,5,2,11,0.00
2013-10-3,95,83,76,67,60,49,63,47,33,30.08,29.95,5,2,14,0.00
2013-10-4,92,82,74,68,61,42,61,49,22,30.07,29.97,6,2,14,0.00
2013-10-5,81,66,53,67,50,33,88,57,33,30.26,30.00,8,2,18,0.20
2013-10-6,78,62,48,41,33,7,71,40,10,30.28,30.17,6,1,14,0.01
2013-10-7,86,65,48,49,34,21,73,34,15,30.31,30.19,4,0,8,0.00
2013-10-8,88,68,49,53,46,38,93,54,19,30.25,30.12,3,1,9,0.00
2013-10-9,87,73,60,58,55,51,83,56,31,30.21,30.10,5,1,11,0.00
2013-10-10,88,75,64,66,61,55,89,62,41,30.19,30.01,4,1,10,0.00
2013-10-11,91,79,71,87,74,62,87,85,68,30.08,29.95,6,2,15,0.00
2013-10-12,99,80,71,94,75,60,87,84,67,30.21,30.01,6,1,11,0.05
2013-10-13,78,73,69,61,51,38,73,49,24,30.35,30.19,4,1,9,0.00
2013-10-14,77,73,70,55,39,13,59,35,10,30.27,30.05,4,1,13,0.56
2013-10-15,82,67,54,20,9,-2,10,10,10,30.23,30.03,5,1,13,0.81
2013-10-16,67,59,54,47,15,-2,61,23,10,30.25,30.16,5,1,13,0.28
2013-10-17,77,59,45,51,35,-4,84,47,10,30.29,30.13,4,0,8,0.00
2013-10-18,72,62,51,55,40,17,84,50,15,30.26,30.04,8,1,18,0.01
2013-10-19,71,54,43,45,34,16,79,50,26,30.38,30.23,8,1,17,0.00
2013-10-20,76,58,41,48,39,20,85,52,25,30.23,30.02,5,1,16,0.00
2013-10-21,65,58,54,51,48,42,79,71,58,30.27,30.04,6,1,11,0.00
2013-10-22,81,60,42,50,35,4,79,47,10,30.33,30.17,3,0,8,0.00
2013-10-23,54,49,48,47,38,36,81,65,44,30.28,30.17,2,0,5,0.00
2013-10-24,69,50,48,52,37,36,61,59,42,30.41,30.21,4,0,8,0.00
2013-10-25,73,61,52,49,46,42,76,57,41,30.54,30.37,4,2,10,0.05
2013-10-26,79,66,59,63,55,48,85,68,56,30.38,30.15,4,1,15,0.74
2013-10-27,70,64,58,49,25,4,66,27,10,30.28,30.15,2,0,5,0.00
2013-10-28,78,69,57,30,16,4,32,14,10,30.25,30.13,4,1,10,0.00
2013-10-29,79,74,70,77,56,11,93,71,10,30.21,30.11,5,2,14,0.00
2013-10-30,74,71,68,72,68,60,93,89,77,30.16,29.93,6,2,18,0.05
2013-10-31,78,69,52,78,64,44,100,88,40,30.03,29.83,8,2,21,0.01